TimeCST,TemperatureF,Dew PointF,Humidity,Sea Level PressureIn,VisibilityMPH,Wind Direction,Wind SpeedMPH,Gust SpeedMPH,PrecipitationIn,Events,Conditions,WindDirDegrees,DateUTC
12:52 AM,6.1,-0.0,76,30.11,10.0,East,9.2,-,N/A,,Clear,80,2014-03-04 06:52:00
1:52 AM,6.1,-0.0,76,30.12,10.0,East,9.2,-,N/A,,Clear,80,2014-03-04 07:52:00
2:52 AM,3.9,-0.9,80,30.09,10.0,East,10.4,-,N/A,,Clear,80,2014-03-04 08:52:00
3:52 AM,5.0,-0.0,80,30.11,10.0,East,8.1,-,N/A,,Clear,90,2014-03-04 09:52:00
4:52 AM,6.1,-0.0,76,30.10,10.0,ENE,8.1,-,N/A,,Overcast,70,2014-03-04 10:52:00
5:52 AM,7.0,1.0,77,30.12,7.0,East,5.8,-,0.00,Snow,Light Snow,80,2014-03-04 11:52:00
6:52 AM,8.1,1.0,73,30.12,10.0,East,5.8,-,0.00,,Mostly Cloudy,90,2014-03-04 12:52:00
7:52 AM,8.1,1.0,73,30.12,10.0,East,9.2,-,N/A,,Overcast,80,2014-03-04 13:52:00
8:52 AM,10.0,1.9,70,30.11,10.0,East,10.4,-,N/A,,Mostly Cloudy,80,2014-03-04 14:52:00
9:52 AM,12.0,1.9,64,30.12,10.0,East,11.5,-,N/A,,Scattered Clouds,90,2014-03-04 15:52:00
10:52 AM,14.0,3.0,62,30.14,10.0,East,10.4,-,N/A,,Overcast,90,2014-03-04 16:52:00
10:59 AM,14.0,3.0,62,30.02,10.0,East,10.4,-,N/A,,Overcast,100,2014-03-04 16:59:00
11:18 AM,15.1,3.9,61,30.02,10.0,East,9.2,-,N/A,,Overcast,100,2014-03-04 17:18:00
11:52 AM,14.0,3.0,62,30.13,10.0,East,10.4,-,N/A,,Overcast,100,2014-03-04 17:52:00
12:34 PM,14.0,5.0,67,30.03,2.5,ESE,6.9,-,0.00,Snow,Light Snow,110,2014-03-04 18:34:00
12:41 PM,12.9,6.1,74,30.03,0.8,East,9.2,-,0.00,Snow,Light Snow,90,2014-03-04 18:41:00
12:52 PM,12.9,7.0,77,30.14,0.5,East,9.2,-,0.01,Snow,Snow,100,2014-03-04 18:52:00
1:03 PM,12.9,8.1,81,30.03,0.5,East,8.1,-,0.00,Snow,Snow,80,2014-03-04 19:03:00
1:50 PM,12.2,8.6,85,30.03,0.8,ENE,6.9,-,0.03,Snow,Light Snow,70,2014-03-04 19:50:00
1:52 PM,12.9,8.1,81,30.14,0.8,East,6.9,-,0.03,Snow,Light Snow,80,2014-03-04 19:52:00
2:21 PM,12.9,8.1,81,30.02,1.0,ENE,9.2,-,0.01,Snow,Light Snow,70,2014-03-04 20:21:00
2:41 PM,12.9,7.0,77,30.02,2.0,ENE,10.4,-,0.02,Snow,Light Snow,70,2014-03-04 20:41:00
2:52 PM,12.9,7.0,77,30.14,1.8,NE,11.5,-,0.02,Snow,Light Snow,50,2014-03-04 20:52:00
3:09 PM,12.9,7.0,77,30.02,0.8,ENE,12.7,-,0.00,Snow,Light Snow,70,2014-03-04 21:09:00
3:18 PM,12.9,7.0,77,30.03,1.2,ENE,11.5,-,0.00,Snow,Light Snow,70,2014-03-04 21:18:00
3:52 PM,12.9,7.0,77,30.15,1.2,ENE,9.2,-,0.01,Snow,Light Snow,70,2014-03-04 21:52:00
4:04 PM,12.9,7.0,77,30.04,0.8,ENE,10.4,-,0.01,Snow,Light Snow,70,2014-03-04 22:04:00
4:42 PM,12.0,7.0,80,30.05,1.2,East,10.4,-,0.02,Snow,Light Snow,80,2014-03-04 22:42:00
4:52 PM,12.0,7.0,80,30.17,1.2,ENE,12.7,-,0.02,Snow,Light Snow,70,2014-03-04 22:52:00
5:07 PM,12.0,7.0,80,30.06,0.8,ENE,11.5,-,0.01,Snow,Light Snow,70,2014-03-04 23:07:00
5:21 PM,10.9,6.1,81,30.07,1.2,ENE,12.7,-,0.01,Snow,Light Snow,70,2014-03-04 23:21:00
5:52 PM,10.9,6.1,81,30.20,1.2,East,11.5,-,0.02,Snow,Light Snow,80,2014-03-04 23:52:00
6:31 PM,10.9,6.1,81,30.10,3.0,East,13.8,-,0.00,,Haze,90,2014-03-05 00:31:00
6:52 PM,10.9,6.1,81,30.21,10.0,East,13.8,-,0.00,,Overcast,90,2014-03-05 00:52:00
7:52 PM,10.9,5.0,77,30.24,10.0,East,15.0,-,0.00,,Overcast,90,2014-03-05 01:52:00
8:52 PM,10.9,5.0,77,30.25,10.0,East,10.4,-,N/A,,Overcast,100,2014-03-05 02:52:00
9:52 PM,10.9,5.0,77,30.28,10.0,East,4.6,-,N/A,,Overcast,90,2014-03-05 03:52:00
10:52 PM,10.9,5.0,77,30.28,10.0,ESE,10.4,-,N/A,,Overcast,110,2014-03-05 04:52:00
11:52 PM,10.9,3.9,73,30.28,10.0,SE,10.4,-,N/A,,Overcast,130,2014-03-05 05:52:00